KUIPER-00135

导读

KUIPER-00135是美国亚马逊“柯伊伯计划”卫星互联网星座中的一颗卫星,于2025年10月14日发射,该计划旨在挑战SpaceX星链主导的卫星互联网市场。根据规划,亚马逊计划在第一代星座部署超3200颗近地轨道卫星,KUIPER-00135的入轨将推动星座组网进程,助力实现全球宽带互联网覆盖服务,加快项目部署进度。

基本信息
目录编号:
65961
目录名称:
KUIPER-00135
国际标识:
2025-228Q
轨道中心:
EARTH
卫星名称:
KUIPER-00135
卫星全名:
KUIPER-00135
卫星状态:
在轨 (已飞行326 天)
发射日期:
2025-10-14 UTC
国别 :
美国 (US)
星等 :
--
轨道信息
数据来源 国际轨道数据 AOE轨道数据
星历时间 2026-09-05T16:51:44+0800
8小时前
查看轨道信息
2026-09-03T02:00:00+0800
2天前
查看轨道信息
半长轴 7007.685km 7007.622km
偏心率 0.0000367 0.0000039
轨道倾角 51.902° 51.901°
近地点辐角 60.515° 144.444°
升交点赤经 276.163° 287.744°
平近点角 299.585° 292.561°
近地点 629.29km 629.457km
远地点 629.806km 629.513km
周期 97.302分钟 97.301分钟
每日圈数 14.799293 14.799493
详细信息
使用方式:
暂无
2D轨道图
3D轨道图
轨道高度分析图
轨道倾角分析图
轨道综合分析图
查看轨道综合分析图